Regional Weather Roundup
Issued by NWS

Home | Current Version | Previous Version | Text Only | Print | Product List | Glossary On
Versions: 1 2 3 4 5 6 7 8 9 10 11 12 13 14 15 16 17 18 19 20 21 22 23 24 25 26 27 28 29 30 31 32 33 34 35 36 37 38 39 40 41 42 43 44 45 46 47 48 49 50
000
ASUS43 KLSX 291007
RWRMO

WEATHER SUMMARY FOR MISSOURI
NATIONAL WEATHER SERVICE SPRINGFIELD MO
400 AM CST MON DEC 29 2014

NOTE: "FAIR" INDICATES FEW OR NO CLOUDS BELOW 12,000 FEET WITH NO
       SIGNIFICANT WEATHER AND/OR OBSTRUCTIONS TO VISIBILITY.
       CURRENT SKY AND/OR WEATHER CONDITIONS ARE NOT AVAILABLE FOR
       CHILLICOTHE AND FARMINGTON.

MOZ001>031-035>038-043-044-053-054-291100-
...NORTHERN AND WESTERN MISSOURI...

CITY           SKY/WX    TMP DP  RH WIND       PRES   REMARKS
KANSAS CTY INT CLEAR     27  19  72 SE3       30.19F
KANSAS C DTWN  CLEAR     28  22  78 CALM      30.21F
LEE`S SUMMIT   CLEAR     28  20  71 E5        30.21S WCI  23
ST JOSEPH      MOCLDY    26  23  88 CALM      30.22S
CHILLICOTHE      N/A     25  21  85 CALM      30.25S
KIRKSVILLE     PTCLDY    22  19  89 E5        30.24S WCI  16

$$
MOZ066>068-077>081-088>096-101>105-291100-
...SOUTHWEST MISSOURI...

CITY           SKY/WX    TMP DP  RH WIND       PRES   REMARKS
SPRINGFIELD    PTCLDY    22  18  85 E3        30.17S
JOPLIN         CLEAR     23  20  88 E5        30.18F WCI  17

$$
MOZ032>034-039>042-045>050-055>058-069>072-291100-
...CENTRAL MISSOURI...

CITY           SKY/WX    TMP DP  RH WIND       PRES   REMARKS
COLUMBIA       CLEAR     24  21  88 NE3       30.23S
JEFFERSON CITY CLEAR     20  17  88 CALM      30.25F
ROLLA          CLEAR     21  18  88 N3        30.19S
SEDALIA        CLEAR     25  21  85 CALM      30.23R
WHITEMAN AFB   FAIR      23  19  86 CALM      30.20R
WARRENSBURG    CLEAR     23  23 100 CALM      30.22S
OSAGE BEACH    CLEAR     19  16  86 CALM      30.21S

$$
MOZ051-052-059>065-291100-
...EAST CENTRAL MISSOURI...

CITY           SKY/WX    TMP DP  RH WIND       PRES   REMARKS
ST LOUIS INTL  CLEAR     25  20  81 CALM      30.26R
SPIRIT OF STL  MOCLDY    21  18  88 CALM      30.25S
ST CHARLES     CLEAR     24  22  91 CALM      30.26S FOG

$$
MOZ072>076-082>087-097>100-106>115-291100-
...SOUTH CENTRAL AND SOUTHEAST MISSOURI...

CITY           SKY/WX    TMP DP  RH WIND       PRES   REMARKS
CAPE GIRARDEAU CLOUDY    31  26  82 N10       30.23F WCI  22
FARMINGTON     PTCLDY    19  18  93 CALM      30.22F
POPLAR BLUFF   CLOUDY    31  25  78 NE7       30.21F WCI  24
WEST PLAINS    CLEAR     21  18  88 NE3       30.18F

$$


USA.gov is the U.S. government's official web portal to all federal, state and local government web resources and services.